Location: Navajo
(48.7922°N, 105.0603°W)
Time: 16:35:17
(UTC+00:00)

QB50P2 - Pass Details

Date: 29 June 2022
Orbit: 590 x 605 km, 97.9° (Epoch: 06 August)

Event Time Altitude Azimuth Distance (km) Brightness Sun altitude
Rises 09:23:01 0° 5° (N) 2,858 ? -11.6°
Reaches altitude 10° 09:25:23 10° 355° (N) 1,952 ? -11.4°
Maximum altitude 09:29:05 30° 294° (WNW) 1,092 ? -11.0°
Enters shadow 09:32:14 13° 237° (WSW) 1,759 ? -10.7°
